Weather History for Ithaca, NY

Change the Weather History Date:

Saturday, August 24, 2013

  Actual Average Record
Temperature  
Mean Temperature 60 °F -  
Max Temperature 72 °F 75 °F 90 °F (1932)
Min Temperature 48 °F 54 °F 36 °F (1971)
Degree Days  
Heating Degree Days 5    
Growing Degree Days 10 (Base 50)    
Moisture  
Dew Point 51 °F    
Average Humidity 86    
Maximum Humidity 100    
Minimum Humidity 49    
Precipitation  
Precipitation 0.00 in - - ()
Sea Level Pressure  
Sea Level Pressure 30.33 in    
Wind  
Wind Speed 2 mph (NE)    
Max Wind Speed 9 mph    
Max Gust Speed -    
Visibility 6 miles    
Events Fog    
Averages and records for this station are not official NWS values.
T = Trace of Precipitation, MM = Missing Value Source: NWS Daily Summary

Daily Weather History Graph

Daily Weather History Graph

Search for Another Location

Airport:

Trip Planner

Search our weather history database for the weather conditions in past years. The results will help you decide how hot, cold, wet, or windy it might be!

Date:

Astronomy

Aug. 24, 2013 Rise Set
Actual Time 6:22 AM EDT 7:52 PM EDT
Civil Twilight 5:53 AM EDT 8:22 PM EDT
Nautical Twilight 5:17 AM EDT 8:57 PM EDT
Astronomical Twilight 4:39 AM EDT 9:35 PM EDT
Moon 9:38 PM EDT (8/24) 10:26 AM EDT (8/24)
Length of Visible Light 14h 29m
Length of Day
13h 30m
Waning Gibbous, 84% of the Moon is Illuminated
Aug 24
Waning Gibbous
Aug 28
Last Quarter
Sep 5
New
Sep 12
First Quarter
Sep 19
Full

Hourly Weather History & Observations

Time (EDT) Temp. Dew Point Humidity Pressure Visibility Wind Dir Wind Speed Gust Speed Precip Events Conditions
12:56 AM 50.9 °F 50.9 °F 100% 30.25 in 10.0 mi Calm Calm - N/A   Clear
1:56 AM 50.9 °F 50.9 °F 100% 30.25 in 9.0 mi Calm Calm - N/A   Clear
2:56 AM 50.0 °F 48.9 °F 96% 30.27 in 7.0 mi Calm Calm - N/A   Clear
3:43 AM 48.2 °F 48.2 °F 100% 30.27 in 2.0 mi East 3.5 mph - N/A   Clear
3:56 AM 50.0 °F 50.0 °F 100% 30.28 in 9.0 mi East 4.6 mph - N/A   Clear
4:33 AM 50.0 °F 50.0 °F 100% 30.28 in 1.8 mi Calm Calm - N/A   Clear
4:38 AM 48.2 °F 48.2 °F 100% 30.29 in 1.0 mi Calm Calm - N/A   Clear
4:46 AM 50.0 °F 48.2 °F 94% 30.29 in 0.8 mi Calm Calm - N/A   Clear
4:56 AM 48.9 °F 47.8 °F 96% 30.30 in 0.5 mi Calm Calm - N/A Fog Fog
5:00 AM 48.2 °F 48.2 °F 100% 30.30 in 0.2 mi Calm Calm - N/A Fog Fog
5:28 AM 48.2 °F 48.2 °F 100% 30.31 in 0.5 mi East 4.6 mph - N/A Fog Fog
5:30 AM 48.2 °F 48.2 °F 100% 30.31 in 0.8 mi East 4.6 mph - N/A   Mostly Cloudy
5:56 AM 48.9 °F 47.8 °F 96% 30.32 in 0.2 mi East 3.5 mph - N/A Fog Fog
6:06 AM 48.2 °F 48.2 °F 100% 30.32 in 0.5 mi Calm Calm - N/A Fog Fog
6:14 AM 48.2 °F 48.2 °F 100% 30.32 in 0.2 mi Calm Calm - N/A Fog Fog
6:20 AM 48.2 °F 48.2 °F 100% 30.33 in 0.2 mi Calm Calm - N/A Fog Fog
6:42 AM 48.2 °F 48.2 °F 100% 30.33 in 0.2 mi Calm Calm - N/A Fog Fog
6:56 AM 48.9 °F 48.9 °F 100% 30.34 in 0.2 mi Calm Calm - N/A Fog Fog
7:18 AM 50.0 °F 48.2 °F 94% 30.35 in 0.2 mi Calm Calm - N/A Fog Fog
7:46 AM 51.8 °F 51.8 °F 100% 30.35 in 3.0 mi Calm Calm - N/A   Mostly Cloudy
7:56 AM 52.9 °F 52.0 °F 97% 30.36 in 7.0 mi East 3.5 mph - N/A   Scattered Clouds
8:56 AM 56.8 °F 54.0 °F 90% 30.37 in 10.0 mi Calm Calm - N/A   Scattered Clouds
9:56 AM 64.9 °F 54.9 °F 70% 30.38 in 10.0 mi Calm Calm - N/A   Partly Cloudy
10:56 AM 68.9 °F 52.0 °F 55% 30.38 in 10.0 mi Calm Calm - N/A   Scattered Clouds
11:56 AM 68.0 °F 50.9 °F 54% 30.38 in 10.0 mi Calm Calm - N/A   Scattered Clouds
12:56 PM 70.0 °F 52.9 °F 55% 30.37 in 10.0 mi WNW 6.9 mph - N/A   Partly Cloudy
1:56 PM 70.9 °F 54.0 °F 55% 30.36 in 10.0 mi NW 8.1 mph - N/A   Partly Cloudy
2:56 PM 72.0 °F 54.0 °F 53% 30.35 in 10.0 mi WNW 9.2 mph - N/A   Partly Cloudy
3:56 PM 72.0 °F 54.0 °F 53% 30.34 in 10.0 mi West 4.6 mph - N/A   Clear
4:56 PM 72.9 °F 52.9 °F 49% 30.34 in 10.0 mi NNW 5.8 mph - N/A   Clear
5:56 PM 70.9 °F 52.9 °F 53% 30.34 in 10.0 mi NW 5.8 mph - N/A   Clear
6:56 PM 68.9 °F 54.0 °F 59% 30.35 in 10.0 mi NNW 5.8 mph - N/A   Clear
7:56 PM 63.0 °F 54.9 °F 75% 30.36 in 10.0 mi NNE 3.5 mph - N/A   Clear
8:56 PM 55.9 °F 54.0 °F 93% 30.38 in 10.0 mi East 3.5 mph - N/A   Clear
9:56 PM 55.9 °F 54.0 °F 93% 30.38 in 6.0 mi East 5.8 mph - N/A   Clear
10:56 PM 55.9 °F 54.0 °F 93% 30.38 in 10.0 mi East 5.8 mph - N/A   Clear
11:56 PM 55.9 °F 54.0 °F 93% 30.37 in 10.0 mi East 5.8 mph - N/A   Clear